TimeEST,TemperatureF,Dew PointF,Humidity,Sea Level PressureIn,VisibilityMPH,Wind Direction,Wind SpeedMPH,Gust SpeedMPH,PrecipitationIn,Events,Conditions,WindDirDegrees,DateUTC
12:15 AM,14.5,11.3,87,30.04,4.0,North,8.1,-,N/A,Snow,Light Snow,350,2013-01-07 05:15:00
12:35 AM,14.5,11.1,86,30.05,10.0,North,9.2,17.3,N/A,,Overcast,350,2013-01-07 05:35:00
12:55 AM,14.5,10.8,85,30.06,7.0,North,11.5,16.1,N/A,Snow,Light Snow,360,2013-01-07 05:55:00
1:15 AM,14.5,10.4,84,30.07,10.0,North,9.2,-,N/A,,Overcast,360,2013-01-07 06:15:00
1:35 AM,13.1,8.6,82,30.09,10.0,North,11.5,-,N/A,,Overcast,360,2013-01-07 06:35:00
1:55 AM,12.2,8.2,84,30.11,10.0,NNW,4.6,-,N/A,,Overcast,340,2013-01-07 06:55:00
2:15 AM,12.0,7.9,83,30.13,10.0,North,9.2,-,N/A,,Overcast,360,2013-01-07 07:15:00
2:35 AM,12.0,7.7,83,30.15,10.0,North,10.4,-,N/A,Snow,Light Snow,360,2013-01-07 07:35:00
3:15 AM,12.0,7.7,83,30.17,7.0,North,6.9,-,N/A,Snow,Light Snow,350,2013-01-07 08:15:00
3:35 AM,12.0,7.7,83,30.19,10.0,North,4.6,-,N/A,Snow,Light Snow,350,2013-01-07 08:35:00
3:55 AM,11.7,7.3,83,30.20,7.0,North,6.9,-,N/A,Snow,Light Snow,360,2013-01-07 08:55:00
4:15 AM,10.2,5.7,82,30.22,5.0,North,5.8,-,N/A,Snow,Light Snow,10,2013-01-07 09:15:00
4:35 AM,9.5,5.0,82,30.23,5.0,North,6.9,-,N/A,Snow,Light Snow,360,2013-01-07 09:35:00
4:55 AM,9.5,4.8,81,30.24,5.0,North,5.8,-,N/A,Snow,Light Snow,10,2013-01-07 09:55:00
5:15 AM,9.5,4.5,80,30.24,7.0,North,4.6,-,N/A,Snow,Light Snow,10,2013-01-07 10:15:00
5:35 AM,8.6,3.4,79,30.25,10.0,North,5.8,-,N/A,Snow,Light Snow,10,2013-01-07 10:35:00
5:55 AM,7.7,2.7,80,30.27,5.0,NNW,5.8,-,N/A,Snow,Light Snow,340,2013-01-07 10:55:00
6:15 AM,6.8,1.4,79,30.28,7.0,NW,4.6,-,N/A,Snow,Light Snow,320,2013-01-07 11:15:00
6:35 AM,6.8,1.4,79,30.30,5.0,North,4.6,-,N/A,Snow,Light Snow,350,2013-01-07 11:35:00
6:55 AM,6.8,1.4,79,30.31,5.0,North,3.5,-,N/A,Snow,Light Snow,360,2013-01-07 11:55:00
7:15 AM,6.8,1.4,79,30.32,5.0,North,3.5,-,N/A,Snow,Light Snow,360,2013-01-07 12:15:00
7:35 AM,6.8,1.4,79,30.33,5.0,North,3.5,-,N/A,Snow,Light Snow,360,2013-01-07 12:35:00
7:55 AM,6.6,1.2,79,30.34,5.0,North,4.6,-,N/A,Snow,Light Snow,360,2013-01-07 12:55:00
8:15 AM,6.6,1.2,79,30.36,4.0,NNW,3.5,-,N/A,Snow,Light Snow,340,2013-01-07 13:15:00
8:35 AM,6.6,1.2,79,30.37,3.0,North,3.5,-,N/A,Snow,Light Snow,360,2013-01-07 13:35:00
8:55 AM,6.8,1.4,79,30.38,2.5,Calm,Calm,-,N/A,Snow,Light Snow,0,2013-01-07 13:55:00
9:15 AM,6.8,1.0,77,30.39,4.0,East,4.6,-,N/A,Snow,Light Snow,80,2013-01-07 14:15:00
9:35 AM,6.8,0.5,75,30.39,3.0,Calm,Calm,-,N/A,Snow,Light Snow,0,2013-01-07 14:35:00
9:55 AM,6.8,0.3,75,30.40,5.0,Calm,Calm,-,N/A,Snow,Light Snow,0,2013-01-07 14:55:00
10:35 AM,9.3,0.9,69,30.40,10.0,Calm,Calm,-,N/A,Snow,Light Snow,0,2013-01-07 15:35:00
11:15 AM,9.5,-0.0,65,30.40,10.0,NW,4.6,-,N/A,,Clear,320,2013-01-07 16:15:00
11:35 AM,9.5,-0.4,64,30.39,10.0,North,4.6,-,N/A,,Clear,10,2013-01-07 16:35:00
11:55 AM,9.5,-0.9,63,30.40,10.0,NNW,3.5,-,N/A,,Clear,330,2013-01-07 16:55:00
12:15 PM,11.5,0.7,62,30.38,10.0,NNW,3.5,-,N/A,,Clear,340,2013-01-07 17:15:00
12:55 PM,14.5,1.9,57,30.38,10.0,Calm,Calm,-,N/A,,Clear,0,2013-01-07 17:55:00
1:15 PM,12.6,0.5,59,30.37,10.0,Calm,Calm,-,N/A,,Clear,0,2013-01-07 18:15:00
1:35 PM,12.0,0.5,60,30.36,10.0,Calm,Calm,-,N/A,,Clear,0,2013-01-07 18:35:00
1:55 PM,14.2,1.9,58,30.37,10.0,Calm,Calm,-,N/A,,Clear,0,2013-01-07 18:55:00
2:15 PM,12.2,0.5,60,30.38,10.0,Calm,Calm,-,N/A,,Clear,0,2013-01-07 19:15:00
2:35 PM,12.0,0.5,60,30.38,10.0,NW,3.5,-,N/A,,Clear,320,2013-01-07 19:35:00
2:55 PM,12.0,0.7,60,30.38,10.0,NNW,3.5,-,N/A,,Clear,340,2013-01-07 19:55:00
3:15 PM,12.0,0.9,61,30.38,10.0,Calm,Calm,-,N/A,,Clear,0,2013-01-07 20:15:00
3:35 PM,9.7,-0.6,63,30.37,10.0,Calm,Calm,-,N/A,,Clear,0,2013-01-07 20:35:00
3:55 PM,11.3,1.0,63,30.36,10.0,Calm,Calm,-,N/A,,Clear,0,2013-01-07 20:55:00
4:15 PM,9.5,0.1,66,30.36,10.0,Calm,Calm,-,N/A,,Clear,0,2013-01-07 21:15:00
4:55 PM,7.0,-0.8,71,30.35,10.0,Calm,Calm,-,N/A,,Clear,0,2013-01-07 21:55:00
5:15 PM,6.8,-0.4,72,30.35,10.0,Calm,Calm,-,N/A,,Clear,0,2013-01-07 22:15:00
5:35 PM,6.6,0.3,75,30.35,10.0,Calm,Calm,-,N/A,,Clear,0,2013-01-07 22:35:00
5:55 PM,4.5,-1.1,78,30.35,10.0,Calm,Calm,-,N/A,,Clear,0,2013-01-07 22:55:00
6:15 PM,1.9,-3.1,79,30.33,10.0,East,4.6,-,N/A,,Clear,100,2013-01-07 23:15:00
6:35 PM,3.4,-0.6,84,30.32,10.0,SE,3.5,-,N/A,,Clear,130,2013-01-07 23:35:00
6:55 PM,4.5,0.5,84,30.30,10.0,SE,4.6,-,N/A,,Clear,140,2013-01-07 23:55:00
7:15 PM,6.8,3.2,85,30.29,10.0,SE,4.6,-,N/A,,Clear,130,2013-01-08 00:15:00
7:35 PM,6.8,3.6,87,30.28,10.0,ESE,4.6,-,N/A,,Clear,120,2013-01-08 00:35:00
7:55 PM,7.7,4.6,87,30.27,10.0,ESE,3.5,-,N/A,,Clear,120,2013-01-08 00:55:00
8:15 PM,6.6,3.6,87,30.26,10.0,Calm,Calm,-,N/A,,Clear,0,2013-01-08 01:15:00
8:35 PM,5.2,1.8,86,-9999,10.0,Calm,Calm,-,N/A,,Clear,0,2013-01-08 01:35:00
8:55 PM,1.6,-1.8,86,30.25,10.0,Calm,Calm,-,N/A,,Clear,0,2013-01-08 01:55:00
9:15 PM,2.3,-1.5,84,30.26,10.0,NNW,3.5,-,N/A,,Clear,340,2013-01-08 02:15:00
9:55 PM,1.2,-2.7,83,30.25,10.0,Calm,Calm,-,N/A,,Clear,0,2013-01-08 02:55:00
10:15 PM,-0.4,-4.0,85,30.24,10.0,SE,5.8,-,N/A,,Clear,130,2013-01-08 03:15:00
10:35 PM,3.2,-0.2,86,30.23,10.0,SE,4.6,-,N/A,,Clear,130,2013-01-08 03:35:00
10:55 PM,4.5,1.0,86,30.22,10.0,ESE,4.6,-,N/A,,Clear,110,2013-01-08 03:55:00
11:35 PM,7.0,4.6,90,30.19,10.0,South,5.8,-,N/A,,Clear,170,2013-01-08 04:35:00
11:55 PM,12.0,9.1,88,30.17,10.0,South,6.9,-,N/A,,Clear,170,2013-01-08 04:55:00